Regional Weather Roundup
Issued by NWS Albany, NY

Home | Current Version | Previous Version | Graphics & Text | Print | Product List | Glossary Off
Versions: 1 2 3 4 5 6 7 8 9 10 11 12 13 14 15 16 17 18 19 20 21 22 23 24 25 26 27

000
ASUS41 KALY 221910
RWRALY

NEW YORK STATE HOURLY WEATHER ROUNDUP
NATIONAL WEATHER SERVICE ALBANY NY
300 PM EDT SUN OCT 22 2017

NOTE: "FAIR" INDICATES FEW OR NO CLOUDS BELOW 12,000 FEET WITH NO
SIGNIFICANT WEATHER AND/OR NO OBSTRUCTIONS TO VISIBILITY.

NYZ032-033-038>043-046>054-057>066-NYZ062>081-082-084-222000-
EAST


CITY           SKY/WX    TMP DP  RH WIND       PRES   REMARKS
ALBANY         PTSUNNY   72  46  39 S7        30.33S
GLENS FALLS    MOSUNNY   71  43  36 S6        30.32F
POUGHKEEPSIE   SUNNY     77  40  26 SE9       30.33F
NEWBURGH       MOSUNNY   75  50  41 VRB6      30.36F
MONTGOMERY     SUNNY     77  46  33 S12       30.33F
WHITE PLAINS   SUNNY     74  42  31 S9        30.36F
ISLIP          PTSUNNY   71  48  43 S8        30.38F
NEW YORK CITY  PTSUNNY   74  39  28 S13       30.36F
CENTRAL PARK   SUNNY     75  41  29 S3        30.39F
$$

NYZ005>009-017-018-044>046-055-056-222000-
CENTRAL


CITY           SKY/WX    TMP DP  RH WIND       PRES   REMARKS
FULTON         CLOUDY    76  51  41 VRB6      30.24F
SYRACUSE       PTSUNNY   74  52  46 S9        30.25F
ROME           CLOUDY    75  47  36 SE7       30.28F
ELMIRA         MOSUNNY   75  53  46 S5        30.26F
BINGHAMTON     MOSUNNY   70  46  42 S9        30.32F
MONTICELLO     SUNNY     70  46  42 S13       30.37S
$$

NYZ026>034-041>043-087-222000-
NORTH


CITY           SKY/WX    TMP DP  RH WIND       PRES   REMARKS
WATERTOWN      CLOUDY    71  50  47 W7        30.24F
FORT DRUM      NOT AVBL
OGDENSBURG     FAIR      75  47  36 S5        30.23F
MASSENA        MOSUNNY   76  49  38 CALM      30.25F
SARANAC LAKE   CLOUDY    73  40  30 SW7       30.29F
PLATTSBURGH    CLOUDY    74  48  39 SE9       30.26F
$$

NYZ001>004-010>016-019>021-085-222000-
WEST


CITY           SKY/WX    TMP DP  RH WIND       PRES   REMARKS
NIAGARA FALLS  SUNNY     78  49  35 SW10      30.18F
BUFFALO        PTSUNNY   78  49  35 SW7       30.20F
DUNKIRK        SUNNY     77  51  40 S10       30.19F
JAMESTOWN      SUNNY     72  51  47 S8        30.24F
WELLSVILLE     MOSUNNY   74  45  35 S8        30.28F
ROCHESTER      CLOUDY    74  53  48 S8        30.23F
PENN YAN       MOSUNNY   73  52  47 S8        30.26F
$$

             KEY
       WCI = WIND CHILL INDEX
       VSB = VISIBILITY
       HX  = HEAT INDEX
$$




USA.gov is the U.S. government's official web portal to all federal, state and local government web resources and services.